User: anonymous   Login
Location: Unspecified
(0.0000°N, 0.0000°E)
Time: 23:01:39
(UTC+00:00)
Language:

Cosmos 1660 - Orbit

View from above orbital plane
View from above orbital plane
View from above satellite
View from above satellite

Ground track
Ground track

The orbit data is extracted from the following two-line orbital elements,

1 15821U 85047A   18018.88904369  .00000001  00000-0  13071-3 0  9992
2 15821  73.6271 335.9522 0026796 149.6167 240.4086 12.40772170476752
Epoch (UTC): 18 January 2018 21:20:13
Eccentricity: 0.0026796
inclination: 73.6271°
perigee height: 1482 km
apogee height: 1524 km
right ascension of ascending node: 335.9522°
argument of perigee: 149.6167°
revolutions per day: 12.40772170
mean anomaly at epoch: 240.4086°
orbit number at epoch: 47675

The dashed part of the orbit path shows where the satellite is in the earth's shadow,  

DLR